sat.trackr.live / text

‹ back to catalog

STARLINK-6178

NORAD 56387 · 2023-061P

PAYLOAD ACTIVE UNKNOWN

§ Identity

Operator
Country
US
Launch date
2023-05-04
Launch site
AFETR
Launch vehicle
Mass (kg)
RCS (m²)

Purposes: comms

External: N2YO · Heavens-Above · Gunter

§ Orbital elements

Epoch: 2026-05-25T00:07:06.886848Z

Period
94.27 min
Inclination
43.0046°
Eccentricity
0.0001465
Mean motion
15.27578193 rev/d
Perigee alt
482.0 km
Apogee alt
484.1 km
Semi-major
6,861.2 km
B*
2.4216e-5
RAAN
126.6888°
Arg perigee
284.4078°
Mean anomaly
75.6611°
Rev number
16,842

§ Raw data

STARLINK-61781 56387U 23061P   26145.00494082  .00000404  00000+0  24216-4 0  99922 56387  43.0046 126.6888 0001465 284.4078  75.6611 15.27578193168421

JSON: /api/v1/satellites/56387 · /tle

For live sub-satellite position, see the globe view (requires WebGL).

§ Visibility from observer

Set your observer location to see the next 7 days of passes ≥ 10°. The values pass through the URL so the page stays shareable.

No JS? Fill the form by hand. The geolocation button needs JavaScript.